Probability
0 0 0 0 0 0 0 0 0 0 0 0 0 0 0 0 0 0 0 0 0 0 0 0 0 0 0 0 0 0 0 0 0 0 0 0 0 0 0 0 0 0 0 0
0 0 0 0 0 0 0 0 0 0 0 0 0 0 0 0 0 0 0 0 0 0 0 0 0 0 0 0 0 0 0 0 0 0 0 0 0 0 0 0 0 0 0 0
0 0 0 0 0 0 0 0 0 0 0 0 0 0 0 0 0 0 0 0 0 0 0 0 0 0 0 0 0 0 0 0 0 0 0 0 0 0 0 0 0 0 0 0
0 0 0 0 0 0 0 0 0 0 0 0 0 0 0 0 0 0 0 0 0 0 0 0 0 0 0 0 0 0 0 0 0 0 0 0 0 0 0 0 0 0 0 0
0 0 0 0 0 0 0 0 0 0 0 0 0 0 0 0 0 0 0 0 0 0 0 0 0 0 0 0 0 0 0 0 0 0 0 0 0 0 0 0 0 0 0 0
0 0 0 0 0 0 0 0 0 0 0 0 0 0 0 0 0 0 0 0 0 0 0 0 0 0 0 0 0 0 0 0 0 0 0 0 0 0 0 0 0 0 0 0
0 0 0 0 0 0 0 0 0 0 0 0 0 0 0 0 0 0 0 0 0 0 0 0 0 0 0 0 0 0 0 0 0 0 0 0 0 0 0 0 0 0 0 0
0 0 0 0 0 0 0 0 0 0 0 0 0 0 0 0 0 0 0 0 0 0 0 0 0 0 0 0 0 0 0 0 0 0 0 0 0 0 0 0 0 0 0 0
0 0 0 0 0 0 0 0 0 0 0 0 0 0 0 0 0 0 0 0 0 0 0 0 0 0 0 0 0 0 0 0 0 0 0 0 0 0 0 0 0 0 0 0
0 0 0 0 0 0 0 0 0 0 0 0 0 0 0 0 0 0 0 0 0 0 0 0 0 0 0 0 0 0 0 0 0 0 0 0 0 0 0 0 0 0 0 0
0 0 0 0 0 0 0 0 0 0 0 0 0 0 0 0 0 0 0 0 0 0 0 0 0 0 0 0 0 0 0 0 0 0 0 0 0 0 0 0 0 0 0 0
0 0 0 0 0 0 0 0 0 0 0 0 0 0 0 0 0 0 0 0 0 0 0 0 0 0 0 0 0 0 0 0 0 0 0 0 0 0 0 0 0 0 0 0
0 0 0 0 0 0 0 0 0 0 0 0 0 0 0 0 0 0 0 0 0 0 0 0 0 0 0 0 0 0 0 0 0 0 0 0 0 0 0 0 0 0 0 0
0 0 0 0 0 0 0 0 0 0 0 0 0 0 0 0 0 0 0 0 0 0 0 0 0 0 0 0 0 0 0 0 0 0 0 0 0 0 0 0 0 0 0 0
0 0 0 0 0 0 0 0 0 0 0 0 0 0 0 0 0 0 0 0 0 0 0 0 0 0 0 0 0 0 0 0 0 0 0 0 0 0 0 0 0 0 0 0
0 0 0 0 0 0 0 0 0 0 0 0 0 0 0 0 0 0 0 0 0 0 0 0 0 0 0 0 0 0 0 0 0 0 0 0 0 0 0 0 0 0 0 0
0 0 0 0 0 0 0 0 0 0 0 0 0 0 0 0 0 0 0 0 0 0 0 0 0 0 0 0 0 0 0 0 0 0 0 0 0 0 0 0 0 0 0 0
0 0 0 0 0 0 0 0 0 0 0 0 0 0 0 0 0 0 0 0 0 0 0 0 0 0 0 0 0 0 0 0 0 0 0 0 0 0 0 0 0 0 0 0
0 0 0 0 0 0 0 0 0 0 0 0 0 0 0 0 0 0 0 0 0 0 0 0 0 0 0 0 0 0 0 0 0 0 0 0 0 0 0 0 0 0 0 0
0 0 0 0 0 0 0 0 0 0 0 0 0 0 0 0 0 0 0 0 0 0 0 0 0 0 0 0 0 0 0 0 0 0 0 0 0 0 0 0 0 0 0 0
0 0 0 0 0 0 0 0 0 0 0 0 0 0 0 0 0 0 0 0 0 0 0 0 0 0 0 0 0 0 0 0 0 0 0 0 0 0 0 0 0 0 0 0
0 0 0 0 0 0 0 0 0 0 0 0 0 0 0 0 0 0 0 0 0 0 0 0 0 0 0 0 0 0 0 0 0 0 0 0 0 0 0 0 0 0 0 0
0 0 0 0 0 0 0 0 0 0 0 0 0 0 0 0 0 0 0 0 0 0 0 0 0 0 0 0 0 0 0 0 0 0 0 0 0 0 0 0 0 0 0 0
0 0 0 0 0 0 0 0 0 0 0 0 0 0 0 0 0 0 0 0 0 0 0 0 0 0 0 0 0 0 0 0 0 0 0 0 0 0 0 0 0 0 0 0
0 0 0 0 0 0 0 0 0 0 0 0 0 0 0 0 0 0 0 0 0 0 0 0 0 0 0 0 0 0 0 0 0 0 0 0 0 0 0 0 0 0 0 0
0 0 0 0 0 0 0 0 0 0 0 0 0 0 0 0 0 0 0 0 0 0 0 0 0 0 0 0 0 0 0 0 0 0 0 0 0 0 0 0 0 0 0 0
0 0 0 0 0 0 0 0 0 0 0 0 0 0 0 0 0 0 0 0 0 0 0 0 0 0 0 0 0 0 0 0 0 0 0 0 0 0 0 0 0 0 0 0
Wind_Speed
5 5 4 7 8 9 12 11 10 12 15 23 22 19 13 11 13 13 12 11 9 6 5 4 2 2 3 4 3 4 6 7 8 9 12 13 13 13 13 13 13 13 13 11
4 5 6 8 11 12 13 15 17 20 24 21 14 9 8 10 12 13 13 11 8 5 4 3 2 3 5 6 7 9 10 10 10 12 14 14 15 14 14 14 13 13 12 10
4 5 4 8 10 12 8 9 11 15 13 10 13 10 6 8 11 11 11 10 8 6 5 6 6 7 8 9 10 12 12 12 11 13 15 16 16 16 15 13 13 12 10 9
3 3 5 6 2 7 8 9 11 10 11 11 11 4 2 5 8 9 9 8 7 7 8 8 9 10 11 12 12 13 13 12 12 14 16 15 15 15 13 11 10 9 9 8
2 3 7 8 4 5 5 8 7 7 9 8 6 1 1 5 6 7 7 6 7 7 8 9 10 10 12 13 12 13 13 13 12 14 14 14 14 12 10 10 9 7 6 6
3 4 5 5 2 2 1 6 4 5 7 6 4 2 2 4 5 6 7 6 7 7 9 9 9 10 12 12 12 12 11 11 11 12 13 13 12 10 8 8 7 6 5 4
5 5 8 8 4 2 1 5 3 4 5 3 2 1 1 3 4 5 5 6 7 8 8 8 8 9 11 10 10 10 10 11 12 12 12 11 9 7 7 6 6 5 5 3
6 6 9 5 1 3 6 5 3 3 3 3 4 4 4 3 3 3 5 6 6 7 7 7 7 9 11 10 9 9 11 11 11 10 9 8 8 7 6 6 6 5 4 3
8 9 6 2 4 3 2 4 3 2 3 6 6 5 4 4 4 4 5 5 6 7 8 8 7 8 10 8 9 10 11 11 9 9 8 7 7 7 5 5 4 3 3 2
5 8 7 6 4 3 3 3 3 2 5 7 6 6 6 5 5 5 5 5 5 7 8 8 7 8 8 8 8 9 10 9 8 8 7 6 5 5 4 3 3 3 2 2
5 7 6 3 4 4 3 2 1 1 4 7 8 7 6 6 7 6 5 5 5 6 7 7 7 7 7 6 8 10 9 8 7 6 6 5 4 3 4 2 3 3 2 1
7 7 5 5 4 4 4 4 3 4 4 5 7 7 7 6 6 7 7 6 6 7 7 7 7 7 6 6 7 9 8 6 5 4 4 4 3 3 5 4 5 4 2 2
6 6 5 5 3 4 4 4 4 4 6 6 6 6 7 6 6 8 8 7 7 7 7 7 7 7 6 6 6 7 7 5 4 4 3 3 3 3 2 4 6 6 6 6
6 4 4 4 4 4 4 4 5 5 5 6 6 7 8 7 8 8 8 8 7 8 7 7 7 6 5 6 7 7 6 6 5 4 3 3 3 2 2 1 2 3 5 8
8 6 4 2 3 4 4 5 6 5 5 6 6 8 8 9 9 8 8 8 8 8 7 7 7 5 5 6 7 7 5 4 4 3 3 2 2 2 2 2 1 2 2 4
12 7 2 3 5 5 5 6 6 7 7 6 7 8 8 8 8 8 8 8 9 8 7 7 6 5 5 6 7 5 4 7 5 3 3 2 2 2 1 1 1 2 2 3
8 6 3 3 5 7 7 7 7 8 8 8 8 9 10 10 10 9 7 6 6 6 6 7 6 5 5 6 6 4 3 4 7 4 2 2 2 1 0 1 1 2 2 5
9 10 9 9 7 8 9 8 8 9 9 8 10 10 11 12 12 10 9 9 8 6 5 5 6 6 6 5 4 4 3 3 3 3 2 1 1 0 1 1 2 3 3 4
10 9 8 8 7 8 9 10 10 10 10 11 11 10 9 8 9 10 10 10 10 8 5 5 11 7 5 6 6 3 4 3 3 2 1 2 2 1 1 2 2 3 3 3
10 9 8 5 2 4 6 8 10 10 10 11 11 10 9 9 9 10 9 7 5 5 7 8 7 5 5 5 7 3 4 3 3 2 1 1 1 1 2 2 3 3 3 3
11 9 7 5 2 1 5 8 10 10 10 11 11 11 10 9 9 9 8 6 4 7 8 11 6 4 4 5 6 4 3 3 2 1 0 1 1 2 2 3 3 4 4 4
10 8 7 5 3 2 3 5 7 10 10 9 8 9 10 10 9 6 4 5 7 13 7 5 4 7 7 7 4 3 3 2 1 1 0 1 2 2 3 3 3 4 4 4
8 7 6 4 2 1 3 4 6 8 9 10 11 12 11 9 8 8 6 5 6 12 8 5 8 11 10 5 3 3 3 2 1 1 1 2 2 3 3 4 4 4 4 5
8 7 6 4 2 1 2 3 4 5 6 7 7 8 9 8 5 3 4 13 15 13 6 9 13 11 9 4 3 3 2 1 1 2 2 2 3 3 3 4 4 5 5 6
6 6 5 4 2 0 1 3 5 6 6 5 6 7 6 5 5 6 6 9 14 13 6 9 13 10 5 3 3 2 1 2 3 3 2 3 3 4 4 4 5 5 6 6
5 5 4 3 2 1 2 3 3 4 5 6 5 5 5 5 7 7 7 7 10 11 6 4 5 6 4 3 2 2 2 2 2 2 3 4 4 5 5 5 7 6 6 6
5 4 3 3 2 1 2 3 4 4 5 6 6 5 6 7 7 8 8 7 7 6 5 4 4 4 3 3 2 2 2 2 3 3 3 4 4 5 5 7 6 6 6 7
Wind_Direction
246 237 211 216 219 205 206 214 237 259 271 283 293 300 308 320 321 317 317 316 312 305 299 303 319 357 11 11 32 81 100 108 113 115 117 117 118 117 117 117 116 113 108 103
283 265 230 239 236 227 233 237 246 263 275 276 283 301 319 334 330 326 326 327 326 330 352 10 31 57 63 60 60 75 84 89 97 105 107 106 105 104 102 102 102 101 101 104
276 301 321 262 229 206 209 215 221 246 257 288 306 318 339 338 333 330 332 340 353 15 33 46 58 70 74 75 77 80 85 90 95 101 100 99 99 97 96 97 96 95 96 97
280 324 256 248 232 188 215 241 230 244 268 289 300 310 66 357 338 339 346 359 21 40 52 56 63 71 78 81 84 87 89 92 94 96 96 96 96 95 95 95 96 97 99 106
251 281 279 282 240 200 222 271 239 240 270 289 308 215 115 17 0 357 3 23 38 51 63 69 72 80 85 85 88 91 92 92 93 96 99 98 97 96 97 99 98 101 114 132
225 262 259 258 256 172 147 282 250 238 271 291 319 301 323 18 14 17 26 39 52 60 67 72 76 85 88 89 89 91 93 92 91 93 96 97 98 100 101 106 113 119 121 132
226 251 267 256 257 127 235 267 271 245 254 254 224 203 107 57 39 36 43 50 60 67 69 70 78 88 90 89 90 93 94 92 89 89 93 98 100 104 111 110 105 100 99 96
195 219 253 260 197 207 239 277 290 265 216 175 147 126 116 94 71 57 60 62 66 71 68 65 76 89 90 87 90 93 94 93 92 93 96 101 103 98 94 97 96 99 102 87
201 221 240 259 245 257 253 275 280 258 187 152 148 152 137 119 104 87 81 77 75 79 75 66 68 85 94 93 97 98 95 94 92 89 86 89 95 96 88 88 97 104 108 98
247 261 261 258 244 242 241 251 271 240 170 158 156 152 144 132 120 107 96 93 93 92 88 81 79 83 95 102 102 100 95 90 88 89 84 77 80 87 95 102 109 113 109 92
255 275 292 266 230 230 228 219 214 146 158 158 150 153 150 140 132 123 111 103 99 100 100 98 96 93 92 95 100 97 92 89 85 84 88 83 79 92 113 132 137 124 121 122
234 239 233 255 238 205 204 206 185 151 140 149 154 151 141 136 131 127 122 114 109 108 108 105 100 94 87 89 100 106 102 95 93 95 95 97 98 79 74 84 77 84 167 215
255 267 245 252 224 193 195 189 170 157 153 148 145 143 137 133 132 129 126 125 122 117 113 109 104 97 92 94 97 103 111 110 102 100 96 91 85 85 59 32 38 34 18 355
283 275 254 231 218 184 158 140 127 119 128 137 136 135 133 131 134 135 136 134 127 120 114 110 104 97 97 100 99 98 97 102 98 90 89 89 92 97 100 78 18 347 354 353
333 308 262 204 137 136 134 132 131 134 135 134 137 142 144 144 145 141 136 132 125 118 114 112 108 103 100 102 101 101 98 96 96 98 99 103 103 101 89 72 33 328 317 330
315 309 264 181 177 170 161 163 165 166 159 153 150 148 142 136 133 132 134 139 140 138 133 124 120 121 113 108 106 102 110 126 121 116 111 104 93 87 77 42 342 319 312 305
306 296 272 241 215 204 196 188 180 173 167 162 155 143 137 135 135 135 132 125 121 123 127 129 128 122 116 117 117 116 111 121 121 112 107 106 98 86 44 300 297 296 292 303
279 272 264 254 238 218 204 189 177 172 168 157 149 150 153 155 154 148 139 126 115 108 113 122 125 121 121 125 124 124 121 118 118 117 109 103 104 51 321 308 305 303 297 307
311 300 285 259 233 209 195 185 176 166 154 153 160 163 159 153 148 145 142 142 144 146 156 152 141 129 130 139 132 121 123 120 113 108 97 54 61 5 328 312 303 299 300 304
328 326 324 314 254 189 178 166 158 156 157 158 159 156 154 152 150 149 149 152 162 157 153 149 136 132 133 139 131 120 121 120 118 110 92 55 345 320 315 309 306 301 301 301
336 339 345 352 7 107 149 151 155 159 160 164 167 167 160 154 153 153 153 154 158 147 152 151 143 143 142 139 128 121 119 116 113 106 57 334 314 308 304 301 304 307 306 305
338 343 351 1 35 76 117 141 151 155 158 160 155 150 151 156 157 153 151 155 157 159 149 144 148 157 152 137 124 127 123 118 109 95 312 301 298 297 296 297 295 294 291 288
338 341 347 354 13 100 119 141 154 160 165 166 166 167 168 165 164 161 159 155 154 159 149 157 166 158 145 130 129 127 126 127 139 265 281 283 285 287 288 289 284 283 283 283
338 341 341 346 13 99 136 143 143 147 149 151 158 161 158 152 148 142 140 158 164 157 155 167 161 152 141 131 132 135 143 167 234 263 275 282 284 284 280 279 280 280 278 280
330 329 334 342 345 297 159 137 129 134 139 142 145 146 146 146 149 150 148 155 160 152 152 163 156 147 139 139 146 159 184 230 242 248 254 271 275 275 273 272 272 275 277 276
324 324 319 306 287 240 183 163 161 159 154 152 151 147 138 130 134 142 144 145 151 151 144 131 137 142 142 151 164 187 222 269 303 303 277 275 273 274 273 275 277 274 273 273
316 317 317 318 308 251 205 186 176 175 171 167 160 157 152 147 146 148 145 143 142 142 140 138 140 146 155 168 191 221 243 256 265 271 273 270 269 269 272 274 275 275 276 276